Date,TemperatureHighF,TemperatureAvgF,TemperatureLowF,DewpointHighF,DewpointAvgF,DewpointLowF,HumidityHigh,HumidityAvg,HumidityLow,PressureMaxIn,PressureMinIn,WindSpeedMaxMPH,WindSpeedAvgMPH,GustSpeedMaxMPH,PrecipitationSumIn
2012-1-1,79,67,58,68,61,57,98,83,55,30.24,30.13,0,0,0,0.01
2012-1-2,79,65,52,68,59,43,98,83,61,30.18,30.02,18,1,18,0.04
2012-1-3,55,49,40,44,34,22,78,57,30,30.33,30.15,25,4,25,0.00
2012-1-4,66,52,40,52,39,25,73,62,51,30.37,30.23,13,2,14,0.00
2012-2-10,82,74,70,74,71,68,95,89,72,29.92,29.87,10,1,12,0.14
2012-2-11,72,66,53,68,61,47,98,84,67,30.07,29.84,19,3,21,0.41
2012-2-12,60,52,45,47,41,33,84,68,49,30.25,30.06,23,5,23,0.00
2012-2-13,70,57,44,56,49,41,93,75,56,30.21,30.09,11,2,13,0.02
2012-2-14,75,64,52,63,58,51,97,82,60,30.13,30.04,11,2,13,0.00
2012-2-15,77,67,57,68,62,56,98,84,62,30.18,30.08,11,1,12,0.05
2012-2-16,79,70,61,68,65,60,99,84,64,30.17,30.05,13,2,13,0.01
2012-2-17,81,72,63,71,66,62,98,83,63,30.07,29.96,8,0,8,0.05
2012-2-18,81,72,63,70,66,62,98,82,61,30.00,29.86,11,1,11,0.00
2012-2-19,86,76,66,74,70,64,97,84,61,29.95,29.83,16,2,18,0.04
2012-2-20,76,67,59,67,59,56,93,77,51,30.14,29.91,12,2,14,0.00
2012-2-21,76,66,55,63,59,54,97,79,58,30.18,30.09,9,0,10,0.05
2012-2-22,82,69,58,68,63,56,99,82,58,30.11,29.92,10,1,10,0.01
2012-2-23,86,74,61,73,66,60,97,80,55,29.98,29.89,11,1,11,0.05
2012-2-24,88,75,64,74,69,63,98,83,53,30.02,29.93,11,1,15,0.01
2012-2-25,85,74,68,76,69,65,98,85,68,30.15,29.99,14,1,14,0.06
2012-2-26,77,72,67,70,68,65,96,86,79,30.22,30.13,16,5,16,0.04
2012-2-27,80,76,73,72,70,69,89,83,70,30.25,30.15,14,5,19,0.00
2012-2-28,80,74,66,72,69,65,97,84,69,30.22,30.13,13,2,13,0.00
2012-2-29,80,74,66,71,69,65,97,85,71,30.18,30.07,15,3,15,0.05
2012-3-1,83,75,67,72,69,66,97,83,63,30.10,29.99,13,2,15,0.00
2012-3-2,83,74,65,72,68,64,98,82,64,30.03,29.94,13,2,14,0.05
2012-3-3,84,77,70,73,70,68,93,80,61,29.97,29.84,18,1,20,0.00
2012-3-4,84,69,53,75,60,43,93,75,46,30.16,29.82,26,4,26,0.06
2012-3-5,74,62,50,57,49,39,86,64,47,30.30,30.16,15,2,18,0.00
2012-3-6,76,67,54,64,58,52,94,74,56,30.33,30.24,23,5,24,0.04
2012-3-7,75,72,69,68,66,62,94,82,76,30.30,30.21,21,6,22,0.80
2012-3-8,77,72,69,70,68,67,95,87,75,30.23,30.12,20,4,20,0.13
2012-3-9,79,74,69,70,69,67,95,84,70,30.17,30.06,15,3,16,0.01
2012-3-10,82,74,66,74,68,65,97,83,59,30.16,30.05,10,1,12,0.05
2012-3-11,78,73,66,70,67,64,95,81,65,30.23,30.12,10,5,18,0.17
2012-3-12,76,72,65,67,65,60,89,78,68,30.25,30.15,10,4,16,0.00
2012-3-13,78,71,64,67,64,61,90,77,64,30.20,30.12,9,2,15,0.00
2012-3-14,79,72,64,69,64,61,96,79,62,30.18,30.08,13,2,16,0.05
2012-3-15,77,71,66,72,67,64,95,88,79,30.19,30.08,14,2,14,0.74
2012-3-16,79,72,66,72,66,63,96,84,61,30.18,30.08,11,2,14,0.07
2012-3-17,80,72,63,68,64,61,94,78,57,30.18,30.09,13,1,14,0.00
2012-3-18,80,71,61,69,65,60,97,82,59,30.18,30.10,12,1,16,0.05
2012-3-19,79,73,66,68,65,61,94,77,58,30.14,30.03,14,2,14,0.01
2012-3-20,78,73,64,69,66,62,95,80,63,30.07,29.98,16,3,16,0.09
2012-3-21,79,76,71,70,69,67,90,80,68,30.11,30.00,19,6,22,0.00
2012-3-22,80,76,72,70,68,65,89,78,60,30.13,30.04,18,4,18,0.00
2012-3-23,80,74,65,70,66,63,96,77,57,30.10,29.99,14,1,14,0.00
2012-3-24,81,73,64,70,65,62,97,78,57,30.03,29.90,11,1,12,0.05
2012-3-25,85,75,66,72,67,64,96,78,56,29.95,29.80,14,1,15,0.00
2012-3-26,83,72,61,65,60,51,90,68,37,29.97,29.86,13,1,13,0.04
2012-3-27,80,72,64,71,64,60,95,77,61,30.13,29.95,18,2,18,0.01
2012-3-28,78,73,66,68,64,60,95,75,61,30.14,30.04,15,3,18,0.09
2012-3-29,79,71,61,69,63,60,97,78,55,30.06,29.95,10,1,11,0.01
2012-3-30,80,70,59,67,62,57,98,76,53,30.05,29.96,0,0,0,0.05
2012-3-31,87,74,64,72,67,61,97,81,51,30.00,29.84,15,0,15,0.02
2012-4-1,88,77,68,71,68,61,97,76,45,29.93,29.82,11,0,12,0.06
2012-4-2,89,77,66,73,66,57,96,73,37,29.90,29.81,0,0,0,0.00
2012-4-3,87,76,64,70,66,60,96,73,41,29.96,29.87,13,1,13,0.05
2012-4-4,87,77,67,74,68,62,98,77,45,29.96,29.80,8,0,9,0.00
2012-4-5,89,77,68,72,69,65,95,78,51,29.88,29.72,15,2,15,0.06
2012-4-6,86,77,70,77,71,63,96,82,61,29.88,29.72,21,1,27,0.37
2012-4-7,81,72,64,69,65,62,95,79,60,30.08,29.86,15,2,20,0.05
2012-4-8,78,71,62,64,61,58,90,71,55,30.11,30.05,15,2,15,0.00
2012-4-9,83,70,59,68,62,58,97,77,53,30.06,29.97,11,1,12,0.06
2012-4-10,82,72,62,70,62,58,97,75,47,30.06,29.96,12,1,13,0.00
2012-4-11,86,74,62,70,64,59,96,73,42,30.04,29.92,9,0,9,0.06
2012-4-12,87,75,63,69,64,58,93,70,41,30.02,29.94,0,0,1,0.00
2012-4-13,80,73,68,71,67,62,93,81,65,30.08,29.96,12,2,14,0.11
2012-4-14,77,73,68,69,66,63,96,81,69,30.18,30.05,23,6,23,0.58
2012-4-15,78,74,68,66,63,60,79,69,57,30.18,30.11,18,6,20,0.04
2012-4-16,78,75,68,67,64,59,77,69,54,30.17,30.07,19,5,19,0.00
2012-4-17,80,74,64,66,63,59,91,70,51,30.15,30.03,15,2,15,0.05
2012-4-18,81,75,67,69,67,63,92,75,61,30.09,29.93,14,2,14,0.00
2012-4-19,82,76,68,71,69,66,96,80,63,29.99,29.87,14,1,14,0.00
2012-4-20,86,76,68,72,69,64,96,81,57,29.93,29.80,16,2,16,0.39
2012-4-21,75,71,68,71,68,66,96,91,83,29.90,29.65,13,2,15,0.76
2012-4-22,83,75,66,73,68,64,95,80,53,29.73,29.54,20,2,20,0.81
2012-4-23,81,71,60,64,58,52,89,66,41,29.91,29.72,16,2,16,0.05
2012-4-24,74,64,53,55,50,43,92,62,33,30.01,29.88,18,2,18,0.00
2012-4-25,77,67,54,61,54,48,92,66,43,30.10,30.00,11,2,12,0.00
2012-4-26,80,71,59,68,61,56,94,73,53,30.12,30.03,11,2,12,0.00
2012-4-27,80,73,63,72,67,60,95,83,68,30.10,30.01,11,1,12,0.10
2012-4-28,77,74,68,73,70,67,95,90,81,30.06,30.00,13,2,13,0.52
2012-4-29,75,72,71,71,70,69,96,93,82,30.04,29.96,13,3,14,2.40
2012-4-30,75,72,70,72,70,68,94,92,87,30.01,29.94,22,5,24,0.44
2012-5-1,80,77,74,72,71,70,87,83,77,30.04,29.96,19,8,19,0.00
2012-5-2,80,77,74,72,71,70,89,81,73,30.06,29.97,15,5,16,0.00
2012-5-3,82,77,72,72,71,68,91,80,69,30.07,29.99,13,3,15,0.00
2012-5-4,82,76,68,71,68,65,94,78,61,30.06,29.97,11,2,11,0.00
2012-5-5,88,77,67,74,69,65,96,77,53,30.00,29.91,9,1,10,0.05
2012-5-6,90,80,69,76,70,66,95,75,52,29.97,29.85,10,0,12,0.00
2012-5-7,91,79,68,74,70,63,95,76,47,29.92,29.81,12,0,12,1.18
2012-5-8,90,75,69,76,70,66,96,86,52,29.90,29.84,0,0,0,0.38
2012-5-9,90,78,69,77,72,67,96,83,58,29.89,29.76,0,0,0,0.12
2012-5-10,92,80,73,78,73,71,94,83,55,29.87,29.75,11,0,13,0.09
2012-5-11,84,78,68,76,72,67,95,84,71,30.06,29.85,14,2,15,0.06
2012-5-12,82,79,76,74,72,70,87,80,72,30.12,30.02,16,5,16,0.00
2012-5-13,82,78,71,73,71,67,92,79,71,30.09,29.98,15,4,15,0.04
2012-5-14,86,79,72,76,73,69,95,83,65,30.04,29.90,12,2,15,0.12
2012-5-15,86,78,72,79,74,68,96,86,67,30.00,29.90,12,0,12,0.11
2012-5-16,84,76,71,76,73,70,96,89,73,30.00,29.89,6,0,7,0.01
2012-5-17,84,76,69,75,72,67,96,87,72,29.96,29.84,12,1,12,0.81
2012-5-18,90,76,70,78,72,67,96,87,58,29.92,29.85,14,0,20,1.20
2012-5-19,88,75,70,77,72,68,97,89,63,29.93,29.85,13,1,14,0.17
2012-5-20,89,76,70,78,72,69,97,86,59,29.95,29.86,16,0,16,0.94
2012-5-21,93,79,69,78,73,68,97,83,48,29.96,29.88,10,0,12,0.10
2012-5-22,82,76,72,75,72,70,95,90,77,29.95,29.89,15,1,18,0.32
2012-5-23,87,78,73,76,73,71,95,87,65,29.91,29.81,13,2,14,0.14
2012-5-24,84,76,72,76,72,68,96,89,73,29.88,29.78,14,1,14,0.53
2012-5-25,88,79,70,78,73,68,96,82,65,29.99,29.85,13,1,13,0.05
2012-5-26,91,80,72,79,73,70,96,81,61,30.00,29.92,11,1,13,0.00
2012-5-27,92,80,73,78,73,70,96,82,49,29.94,29.83,11,0,15,0.58
2012-5-28,89,80,74,78,74,70,95,82,62,29.96,29.86,14,2,16,0.12
2012-5-29,89,80,72,78,74,71,97,83,61,29.95,29.85,15,1,15,0.55
2012-5-30,95,83,72,80,74,70,96,77,49,29.94,29.79,0,0,0,0.00
2012-5-31,88,79,75,77,74,73,95,86,64,29.94,29.85,0,0,0,0.09
2012-6-1,84,77,73,77,74,71,96,92,77,29.96,29.85,9,0,12,1.22
2012-6-2,92,83,75,80,76,72,96,80,62,29.96,29.86,0,0,0,0.03
2012-6-3,93,82,72,80,75,70,95,79,56,30.01,29.92,9,0,11,0.00
2012-6-4,94,84,74,80,75,71,95,76,55,29.98,29.85,14,0,14,0.05
2012-6-5,94,84,78,80,76,72,93,77,52,29.88,29.79,9,0,9,0.00
2012-6-6,88,83,79,79,77,71,93,82,70,29.95,29.85,0,0,0,0.05
2012-6-7,93,85,80,80,77,74,92,78,56,29.95,29.88,11,0,13,0.00
2012-6-8,94,82,76,80,76,73,93,82,61,29.95,29.85,12,1,15,0.01
2012-6-9,92,83,76,80,77,73,95,83,60,30.00,29.89,10,0,10,0.01
2012-6-10,88,83,77,80,77,75,96,83,71,30.09,29.96,14,3,15,0.05
2012-6-11,85,81,76,77,73,70,94,78,64,30.08,30.01,13,2,14,0.00
2012-6-12,85,79,70,75,70,65,94,75,53,30.06,29.93,11,0,11,0.04
2012-6-13,94,82,70,76,72,68,95,73,48,29.98,29.85,9,1,12,0.00
2012-6-14,96,84,71,81,74,67,95,76,49,30.06,29.85,18,1,20,1.58
2012-6-15,92,80,71,81,74,68,97,84,61,30.01,29.89,20,0,22,0.63
2012-6-16,86,78,73,77,72,69,96,81,66,30.00,29.90,13,1,15,0.34
2012-6-17,85,79,70,76,69,66,94,73,60,30.00,29.89,19,2,19,0.00
2012-6-18,84,79,72,72,69,66,84,72,57,29.99,29.90,14,3,15,0.04
2012-6-19,84,80,76,75,73,70,94,78,71,30.00,29.92,16,4,19,0.39
2012-6-20,82,77,74,76,74,73,96,91,77,29.99,29.90,12,2,14,0.91
2012-6-21,84,80,77,77,75,73,92,86,74,29.97,29.84,13,3,18,0.29
2012-6-22,84,78,73,77,75,72,95,91,80,29.93,29.81,9,1,10,0.99
2012-6-23,85,78,73,79,75,71,97,91,78,29.97,29.83,14,3,15,0.66
2012-6-24,84,80,74,79,77,72,96,91,83,29.96,29.83,15,4,18,0.53
2012-6-25,89,84,82,78,77,76,86,80,68,29.84,29.73,18,5,20,0.00
2012-6-26,91,84,79,78,76,74,90,78,63,29.77,29.69,21,4,21,0.05
2012-6-27,92,85,80,80,77,76,90,79,62,29.96,29.74,19,2,23,0.02
2012-6-28,95,83,73,80,76,70,94,78,53,30.04,29.95,10,1,10,0.05
2012-6-29,92,83,75,79,76,73,94,79,62,30.03,29.91,9,1,10,0.00
2012-6-30,96,85,75,80,75,72,93,74,52,30.00,29.90,9,1,9,0.04
2012-7-1,95,84,76,81,76,73,94,77,56,30.06,29.95,11,1,12,0.04
2012-7-2,95,84,76,80,75,72,95,76,54,30.09,29.96,10,1,11,0.04
2012-7-3,92,83,75,80,75,71,95,78,53,30.04,29.96,11,1,12,0.00
2012-7-4,90,83,76,81,75,71,96,80,64,30.06,29.98,10,2,12,0.09
2012-7-5,88,81,74,79,75,72,94,82,65,30.06,29.95,14,1,14,0.85
2012-7-6,89,82,74,80,75,72,94,80,62,30.04,29.96,11,2,13,0.03
2012-7-7,88,83,75,80,76,72,93,79,66,30.05,29.98,13,2,15,0.03
2012-7-8,94,81,76,81,76,73,95,85,59,30.06,29.98,12,0,12,0.60
2012-7-9,87,81,75,80,76,72,96,84,71,30.04,29.93,11,1,12,0.00
2012-7-10,89,82,76,80,76,74,95,83,66,30.01,29.91,13,2,18,0.03
2012-7-11,85,78,74,78,74,72,95,86,71,30.04,29.92,9,1,11,0.12
2012-7-12,90,80,74,78,74,71,94,84,64,30.02,29.93,11,0,13,0.20
2012-7-13,86,80,74,78,75,72,95,84,69,30.03,29.94,15,2,15,0.19
2012-7-14,86,81,74,78,75,72,94,82,67,30.05,29.95,15,3,19,0.09
2012-7-15,84,77,73,76,74,71,95,89,74,30.09,30.00,12,1,12,1.81
2012-7-16,88,78,73,79,74,71,97,90,70,30.08,29.95,14,1,16,0.38
2012-7-17,73,73,73,71,71,71,94,94,94,30.00,29.99,0,0,0,0.38
2012-7-24,94,86,82,81,77,72,84,74,66,30.03,29.99,11,1,11,0.05
2012-7-25,93,84,77,80,76,71,94,78,51,30.03,29.95,11,1,11,0.00
2012-7-26,94,84,76,80,76,73,95,78,55,30.03,29.96,10,1,12,0.04
2012-7-27,92,84,76,81,76,74,94,79,60,30.07,29.97,13,1,13,0.00
2012-7-28,90,82,74,81,76,70,96,83,66,30.11,30.00,20,1,22,0.73
2012-7-29,90,83,75,80,75,73,96,80,63,30.07,29.97,11,1,11,0.04
2012-7-30,90,81,72,81,74,69,95,82,60,30.05,29.94,10,0,14,0.37
2012-7-31,91,81,73,80,75,71,97,82,57,30.03,29.93,10,0,14,0.01
2012-8-1,93,84,75,82,76,72,95,79,51,30.00,29.91,12,0,13,0.03
2012-8-2,92,83,77,82,78,74,94,84,62,29.98,29.89,11,1,12,0.11
2012-8-3,92,79,74,84,76,71,96,91,67,30.00,29.89,15,0,16,0.29
2012-8-4,92,81,74,82,76,72,96,87,65,30.03,29.92,14,1,15,0.09
2012-8-5,88,82,75,81,77,73,95,86,71,30.05,29.97,18,2,19,0.22
2012-8-6,88,81,76,80,77,74,96,88,73,30.04,29.95,16,2,16,0.32
2012-8-7,90,83,77,79,76,73,95,81,62,30.01,29.93,13,1,15,0.04
2012-8-8,90,83,76,81,77,74,95,82,65,30.01,29.94,1,0,1,0.00
2012-8-9,90,84,78,81,77,73,94,81,66,30.00,29.88,13,1,15,0.02
2012-8-10,85,79,75,78,75,73,95,87,72,29.98,29.90,15,1,15,0.30
2012-8-11,90,79,74,79,75,72,96,87,65,30.02,29.91,14,1,14,0.09
2012-8-12,91,81,76,81,76,74,95,87,63,30.04,29.96,0,0,0,0.06
2012-8-13,89,82,76,80,77,74,96,86,70,30.05,29.96,0,0,0,0.06
2012-8-14,93,83,78,81,78,74,96,85,57,30.03,29.92,11,0,11,0.12
2012-8-15,91,84,78,82,77,75,95,81,64,30.02,29.94,12,1,13,0.03
2012-8-16,92,81,75,81,77,72,95,88,66,30.05,29.97,12,0,16,1.20
2012-8-17,94,82,76,81,76,72,97,83,58,30.03,29.90,11,0,11,0.04
2012-8-18,94,82,76,81,76,74,96,85,54,29.98,29.89,11,0,12,0.26
2012-8-19,94,84,77,80,77,74,96,80,55,29.99,29.88,10,0,12,0.05
2012-8-20,91,84,78,80,77,76,95,81,64,30.00,29.88,11,1,13,0.00
2012-8-21,91,83,74,79,76,71,95,81,59,30.07,29.95,13,1,20,0.09
2012-8-22,91,81,75,80,75,70,93,82,62,30.07,29.98,15,1,18,0.00
2012-8-23,90,82,74,81,75,72,95,80,60,30.06,29.97,11,1,13,0.00
2012-8-24,89,81,73,80,75,69,96,83,66,30.00,29.87,24,2,24,0.17
2012-8-25,84,77,72,79,75,71,97,93,82,29.96,29.84,11,1,19,0.68
2012-8-26,84,79,76,78,77,74,96,91,82,29.85,29.63,25,7,31,2.90
2012-8-27,82,80,76,79,77,74,94,91,87,29.93,29.69,28,8,33,2.26
2012-8-28,87,82,79,80,78,75,93,86,76,29.99,29.89,16,2,16,0.04
2012-8-29,90,83,77,79,77,74,95,81,63,29.98,29.88,12,2,15,0.04
2012-8-30,89,82,75,78,76,73,96,82,63,30.08,29.94,12,2,12,0.04
2012-8-31,89,82,77,79,76,72,97,81,58,30.12,30.03,10,1,10,0.04
2012-9-1,90,82,76,81,77,74,97,84,65,30.08,29.98,13,1,14,0.04
2012-9-2,87,80,73,78,75,72,95,84,71,30.02,29.93,15,2,15,0.03
2012-9-3,87,80,74,78,75,72,96,84,67,30.02,29.93,12,2,13,0.04
2012-9-4,88,80,74,78,75,71,96,85,64,30.01,29.90,12,1,13,0.13
2012-9-5,89,76,70,78,73,67,97,89,64,30.00,29.90,28,1,28,2.52
2012-9-6,88,78,71,78,74,68,98,89,67,30.01,29.93,13,1,20,1.00
2012-9-7,90,79,72,79,74,71,98,86,66,29.98,29.88,15,1,18,0.05
2012-9-8,93,82,74,79,75,71,97,80,53,29.96,29.85,11,0,11,0.01
2012-9-9,93,84,77,80,76,74,92,77,55,29.97,29.87,10,1,12,0.00
2012-9-10,92,83,77,82,77,75,97,84,61,29.98,29.91,12,1,12,0.02
2012-9-11,90,81,75,81,77,73,97,88,70,30.03,29.95,14,0,20,1.24
2012-9-12,88,80,75,78,75,73,97,86,66,30.04,29.94,15,1,15,0.36
2012-9-13,81,78,75,78,75,73,96,91,84,30.05,29.93,15,1,18,1.07
2012-9-14,87,80,73,79,75,72,97,86,70,30.00,29.91,19,2,19,0.06
2012-9-15,86,80,74,78,75,72,96,85,71,30.02,29.93,13,2,13,0.01
2012-9-16,85,78,74,77,75,73,96,89,71,30.01,29.92,9,0,10,0.27
2012-9-17,86,79,73,78,75,72,97,87,70,29.99,29.88,14,2,14,0.01
2012-9-18,92,82,75,81,76,73,97,83,62,29.98,29.86,12,1,16,0.17
2012-9-19,89,81,74,81,76,73,97,86,65,30.03,29.90,9,0,9,0.00
2012-9-20,89,81,74,80,76,73,97,86,69,30.01,29.88,12,1,12,0.03
2012-9-21,87,78,74,78,75,71,96,90,71,29.96,29.87,11,1,12,0.51
2012-9-22,84,76,73,79,74,71,97,94,79,29.99,29.89,11,0,13,0.95
2012-9-23,82,78,75,80,76,74,98,93,84,30.03,29.95,7,0,9,0.14
2012-9-24,86,79,74,79,74,72,97,87,73,30.03,29.94,8,0,10,0.00
2012-9-25,86,79,74,79,73,69,94,84,68,30.05,29.95,11,0,13,0.00
2012-9-26,85,79,75,78,76,74,95,88,76,30.05,29.97,7,0,7,0.01
2012-9-27,90,80,75,81,75,72,96,86,66,30.05,29.94,8,0,8,0.01
2012-9-28,90,79,74,81,75,72,97,89,71,30.00,29.89,7,0,8,0.02
2012-9-29,89,80,73,80,75,72,98,85,62,29.94,29.81,11,1,11,0.00
2012-9-30,88,81,73,78,75,71,97,83,60,29.89,29.75,11,2,12,0.00
2012-10-1,85,79,75,79,76,74,97,91,80,29.85,29.74,11,1,11,1.30
2012-10-2,86,78,73,80,75,72,97,92,77,30.03,29.84,21,1,21,1.61
2012-10-3,89,81,75,80,77,74,97,87,68,30.14,30.00,13,1,14,0.01
2012-10-4,88,83,77,80,78,75,96,85,69,30.12,30.01,11,2,12,0.14
2012-10-5,88,82,76,80,76,74,97,84,66,30.06,29.88,11,1,11,0.04
2012-10-6,87,80,75,81,76,74,97,88,73,29.94,29.82,7,0,8,0.03
2012-10-7,86,78,73,81,75,71,97,90,76,29.94,29.84,9,0,10,0.06
2012-10-8,86,78,73,80,75,72,98,91,75,29.99,29.88,9,0,9,0.15
2012-10-9,92,82,74,81,77,74,98,86,63,29.99,29.91,0,0,1,0.00
2012-10-10,88,80,74,80,76,72,98,86,72,30.03,29.94,11,0,11,0.01
2012-10-11,86,78,72,74,71,68,96,80,61,30.08,29.99,11,1,13,0.00
2012-10-12,86,77,70,74,69,65,95,76,51,30.08,30.00,18,1,18,0.00
2012-10-13,84,77,71,76,70,68,92,79,62,30.07,29.98,18,2,21,0.14
2012-10-14,84,79,75,78,74,68,96,86,70,30.02,29.89,18,2,18,0.76
2012-10-15,88,79,73,78,74,72,98,86,67,29.91,29.75,11,0,13,0.01
2012-10-16,89,79,72,78,73,71,97,83,58,29.82,29.73,10,1,11,0.00
2012-10-17,85,77,71,77,73,70,98,88,69,29.86,29.76,10,1,12,0.18
2012-10-18,90,80,72,79,75,71,98,87,63,29.85,29.77,13,1,13,0.00
2012-10-19,85,78,74,80,75,72,98,91,75,29.86,29.77,10,0,10,0.71
2012-10-20,88,79,72,77,74,72,99,86,63,29.90,29.80,9,0,10,0.00
2012-10-21,85,77,69,72,68,64,96,77,58,29.97,29.85,12,0,12,0.00
2012-10-22,84,76,66,72,67,63,93,76,58,29.98,29.91,16,2,20,0.00
2012-10-23,84,78,69,74,70,65,88,76,65,29.95,29.87,16,2,16,0.01
2012-10-24,85,78,73,75,72,68,95,82,62,29.93,29.80,19,2,24,0.11
2012-10-25,82,75,72,76,72,68,96,90,74,29.81,29.61,22,2,23,0.81
2012-10-26,80,73,69,74,70,67,97,90,78,29.61,29.45,25,5,25,0.43
2012-10-27,84,75,69,69,65,63,88,73,51,29.67,29.47,23,4,27,0.00
2012-10-28,82,73,67,71,65,59,92,77,55,29.76,29.64,13,1,18,0.00
2012-10-29,74,66,59,60,53,48,83,65,42,29.84,29.72,20,1,20,0.00
2012-10-30,74,63,55,56,52,46,91,67,49,29.97,29.80,16,1,21,0.00
2012-10-31,76,64,54,62,57,52,97,80,54,30.04,29.94,9,0,9,0.00
2012-11-1,82,69,56,68,62,55,97,80,53,30.04,29.93,6,0,10,0.00
2012-11-2,80,69,58,70,61,52,97,79,45,30.06,29.97,0,0,0,0.01
2012-11-3,83,68,55,63,58,50,97,75,33,30.11,30.01,0,0,0,0.00
2012-11-4,80,69,60,70,63,59,97,84,54,30.08,29.96,0,0,0,0.01
2012-11-5,82,70,63,67,64,59,97,82,53,29.99,29.90,0,0,0,0.00
2012-11-6,84,72,63,70,64,56,97,79,43,29.92,29.79,0,0,1,0.00
2012-11-7,76,67,58,66,59,52,95,76,59,29.95,29.81,19,1,19,0.00
2012-11-8,70,61,52,53,49,43,92,67,40,30.09,29.94,15,2,18,0.00
2012-11-9,76,66,54,62,55,50,89,68,47,30.17,30.06,14,1,14,0.00
2012-11-10,76,70,65,64,58,54,79,66,54,30.22,30.12,13,1,14,0.00
2012-11-11,79,74,67,68,62,57,91,68,53,30.19,30.12,16,3,18,0.04
2012-11-12,80,74,70,70,68,66,93,81,69,30.17,30.07,20,2,20,0.04
2012-11-13,80,73,65,71,67,63,96,83,63,30.11,30.01,10,0,13,0.00
2012-11-14,81,71,64,73,66,63,97,85,65,30.09,30.00,12,1,12,0.01
2012-11-15,84,72,62,71,66,61,97,81,57,30.06,29.99,8,0,8,0.00
2012-11-16,78,69,64,71,66,62,96,90,76,30.08,29.98,0,0,1,0.02
2012-11-17,79,71,64,70,66,63,98,85,65,30.06,29.98,10,1,11,0.07
2012-11-18,80,70,66,72,67,64,96,89,73,30.08,29.98,9,0,12,0.26
2012-11-19,74,65,59,64,60,58,96,86,69,30.09,29.98,12,1,13,0.00
2012-11-20,72,67,60,66,63,58,97,88,81,30.01,29.89,13,1,13,0.03
2012-11-21,76,66,59,67,60,52,95,81,56,30.00,29.89,16,3,20,0.02
2012-11-22,75,63,54,61,53,48,90,71,51,30.08,29.97,18,3,19,0.03
2012-11-23,78,64,54,64,55,50,92,75,55,30.12,30.00,12,2,15,0.02
2012-11-24,75,62,51,62,54,49,94,78,46,30.09,29.97,13,1,15,0.04
2012-11-25,77,62,50,62,55,49,96,80,46,30.10,30.02,6,0,6,0.04
2012-11-26,78,66,54,67,60,53,99,83,60,30.16,30.07,10,1,10,0.05
2012-11-27,79,68,59,69,64,58,98,87,70,30.16,30.05,11,1,12,0.04
2012-11-28,79,70,63,70,65,62,98,86,63,30.16,30.06,8,0,10,0.05
2012-11-29,78,69,59,68,64,58,97,83,67,30.18,30.10,14,2,14,0.03
2012-11-30,77,72,67,66,64,61,96,75,62,30.18,30.09,18,3,20,0.07
2012-12-1,78,71,63,68,64,61,96,79,60,30.15,30.08,13,1,15,0.05
2012-12-2,79,73,68,69,66,64,87,78,68,30.19,30.10,15,2,18,0.00
2012-12-3,78,69,62,70,63,56,96,81,59,30.21,30.12,0,0,0,0.07
2012-12-4,76,70,62,69,63,58,96,80,59,30.19,30.11,11,0,12,0.06
2012-12-5,77,70,64,69,64,63,96,84,63,30.11,29.98,1,0,1,0.04
2012-12-6,79,70,64,73,66,63,98,88,68,29.99,29.86,8,0,9,0.05
2012-12-7,80,71,63,72,67,62,98,87,68,29.95,29.86,1,0,1,0.04
2012-12-8,79,73,64,73,70,63,98,90,76,30.00,29.92,12,1,13,0.04
2012-12-9,84,75,68,77,72,67,98,90,70,30.06,29.95,0,0,0,0.04
2012-12-10,83,76,69,77,73,68,99,90,78,29.99,29.88,12,1,12,0.05
2012-12-11,86,78,70,79,74,68,97,89,72,30.02,29.90,11,1,12,0.55
2012-12-12,82,76,70,74,72,69,97,88,75,30.07,29.97,13,1,15,0.04
2012-12-13,80,71,64,76,69,62,99,93,84,30.07,29.98,13,1,13,0.04
2012-12-14,78,68,62,72,64,61,99,88,60,30.10,30.01,2,0,2,0.02
2012-12-15,77,70,64,72,66,63,99,88,73,30.06,29.98,12,1,13,0.04
2012-12-16,79,70,63,71,66,62,99,88,69,30.01,29.91,11,1,12,0.00
2012-12-17,83,71,62,72,67,62,99,87,65,29.95,29.85,5,0,7,0.04
2012-12-18,84,73,65,74,68,64,99,86,61,29.99,29.88,7,0,12,0.06
2012-12-19,83,70,59,69,65,58,99,83,56,30.06,29.97,0,0,0,0.06
2012-12-20,81,71,61,69,65,60,98,84,51,30.05,29.93,12,0,12,0.01
2012-12-21,71,64,50,70,53,40,97,72,44,30.15,29.92,21,3,23,0.00
2012-12-22,65,52,45,43,39,35,91,64,35,30.23,30.14,19,2,19,0.02
2012-12-23,72,58,44,58,49,38,94,74,53,30.21,30.09,10,0,11,0.00
2012-12-24,75,65,54,63,58,52,95,80,61,30.11,29.96,13,1,13,0.00
2012-12-25,77,68,57,68,62,56,98,82,63,30.02,29.90,12,1,12,0.05
2012-12-26,83,73,62,74,68,60,97,87,70,29.97,29.81,19,1,19,0.06
2012-12-27,72,60,51,60,53,48,94,79,46,30.05,29.95,0,0,0,0.01
2012-12-28,77,67,50,71,63,48,96,88,79,30.04,29.93,9,1,10,0.00
2012-12-29,83,74,61,76,70,57,97,89,73,30.08,29.90,20,1,20,0.02
2012-12-30,68,59,50,58,54,46,93,82,65,30.25,30.08,14,2,15,0.00
2012-12-31,74,69,64,62,60,57,79,73,65,30.26,30.15,15,2,19,0.00
2013-1-1,77,70,64,65,63,60,94,78,64,30.16,30.01,16,2,16,0.05